Location: Arlington
(40.6323°N, 74.1651°W)
Time: 03:15:17
(UTC+00:00)

Cosmos 1634 Rocket - Pass Details

Date: 22 November 2019
Orbit: 959 x 993 km, 82.9° (Epoch: 07 December)

Event Time Altitude Azimuth Distance (km) Brightness Sun altitude
Rises 23:42:07 0° 349° (N) 3,655 7.1 -24.0°
Reaches altitude 10° 23:44:39 10° 346° (NNW) 2,703 6.4 -24.5°
Maximum altitude 23:50:44 64° 267° (W) 1,057 4.3 -25.7°
Drops below altitude 10° 23:56:47 10° 187° (S) 2,684 6.4 -26.8°
Sets 23:59:17 0° 184° (S) 3,628 7.1 -27.3°
